User: anonymous   Login
Location: Dunedin
(45.8670°S, 170.5000°E)
Time: 08:06:59
(UTC+13:00)
Language:

Cosmos 1633 Rocket - Orbit

View from above orbital plane
View from above orbital plane
View from above satellite
View from above satellite

Ground track
Ground track

The orbit data is extracted from the following two-line orbital elements,

1 15593U 85020B   19292.82380671  .00000067  00000-0  51304-5 0  9997
2 15593  82.5403 182.8604 0013201  96.0914 264.1806 14.84367125871141
Epoch (UTC): 19 October 2019 19:46:16
Eccentricity: 0.0013201
inclination: 82.5403°
perigee height: 606 km
apogee height: 625 km
right ascension of ascending node: 182.8604°
argument of perigee: 96.0914°
revolutions per day: 14.84367125
mean anomaly at epoch: 264.1806°
orbit number at epoch: 87114

The dashed part of the orbit path shows where the satellite is in the earth's shadow,  

DLR